Temperature
19 18 18 18 18 18 18 18 19 19 19 19 19 19 19 19 19 18 18 18 18 18 18 18 18 19 18 18 18 18 18 18 18 18 18 18 18 18 18 18 18 18 18
19 18 18 18 18 18 18 18 18 19 19 19 19 19 18 18 18 19 18 18 18 18 18 18 18 18 18 18 18 18 18 18 18 18 18 18 18 18 18 18 18 17 18
18 18 18 18 18 18 18 18 18 18 18 19 19 19 18 18 18 18 19 18 18 18 18 18 18 18 18 18 18 18 18 18 18 18 18 17 17 18 18 18 18 18 18
18 18 18 18 18 18 18 18 18 18 18 19 19 19 19 19 18 18 18 18 18 18 18 18 18 18 18 18 18 18 18 18 18 17 17 17 17 17 17 18 18 17 17
18 18 18 19 19 18 18 18 18 18 18 18 18 18 18 19 18 18 18 18 18 18 18 18 18 18 18 18 18 18 18 18 18 17 17 17 17 17 17 17 17 17 17
19 18 18 19 19 18 18 18 18 18 18 18 18 18 18 18 18 18 18 18 18 18 18 18 18 18 18 18 18 18 18 18 17 17 17 17 17 17 17 17 17 17 17
19 19 18 19 19 19 18 18 18 18 18 18 18 18 18 18 19 18 18 18 18 18 18 18 18 18 18 18 18 18 18 17 17 17 17 17 17 17 17 17 17 17 17
19 19 18 19 19 19 19 18 18 18 18 18 18 18 18 18 18 18 18 18 18 18 18 18 18 18 18 18 18 18 18 17 17 17 17 17 17 17 17 17 17 17 17
19 19 19 19 19 19 18 18 18 18 18 18 18 18 18 18 18 18 18 18 18 18 18 18 18 18 18 18 18 18 17 17 17 17 17 17 17 17 17 17 17 17 17
19 19 19 19 18 18 18 18 18 18 18 18 18 18 18 18 18 18 18 18 18 18 18 18 18 18 18 18 18 17 17 17 17 17 17 17 17 17 17 17 17 17 17
19 19 19 19 19 18 18 18 18 18 18 18 18 18 18 18 18 18 18 18 18 18 18 18 18 18 18 17 17 17 17 17 17 17 17 17 17 17 17 17 17 17 17
19 19 19 19 19 19 18 18 18 18 18 18 18 18 18 18 18 18 18 18 18 18 18 18 18 18 17 17 17 17 17 17 17 17 17 17 17 17 17 17 17 17 17
19 19 19 19 18 18 18 18 18 18 18 18 18 18 18 18 18 18 18 18 18 18 18 18 17 17 17 17 17 17 17 17 17 17 17 17 17 17 17 17 17 17 17
19 19 19 19 18 18 18 18 18 18 18 18 18 18 18 18 18 18 18 18 18 17 17 17 17 17 17 17 17 17 17 17 17 17 17 17 17 17 17 17 17 17 17
19 19 19 19 18 18 18 18 18 18 18 18 18 18 18 18 18 18 18 18 18 18 17 17 17 17 17 17 17 17 17 16 16 16 17 17 17 17 17 17 17 17 17
19 19 19 18 18 18 18 18 18 18 18 18 18 18 18 18 18 18 18 18 18 17 17 17 17 17 17 17 17 17 17 17 16 16 16 16 17 17 17 16 17 17 17
19 19 19 19 18 18 18 18 18 18 18 18 18 18 18 18 18 18 18 18 17 17 17 17 17 17 17 17 17 16 16 16 16 16 16 16 16 16 16 16 16 17 16
19 19 19 19 19 18 18 18 18 18 18 18 18 18 18 18 17 18 18 18 17 17 17 17 17 17 17 17 17 16 16 16 16 16 16 16 16 16 16 16 16 16 16
19 19 19 19 19 18 18 18 18 18 18 18 18 18 18 18 17 17 18 18 17 17 17 17 17 17 17 17 17 16 16 16 16 16 16 16 16 16 16 16 16 16 16
19 19 19 19 19 18 18 18 18 18 18 18 18 18 18 18 18 17 18 17 17 17 17 17 17 17 17 17 17 17 16 16 16 16 16 16 16 16 16 16 16 16 16
19 19 19 19 19 18 18 18 18 18 18 18 18 18 18 18 18 18 17 17 17 17 17 17 17 17 17 17 17 17 17 17 17 16 16 16 16 16 16 16 16 16 16
20 19 19 19 19 19 19 18 18 18 18 18 18 18 18 18 18 18 18 17 17 17 17 17 17 17 17 17 17 17 18 17 16 17 17 16 16 16 16 16 16 16 16
20 20 20 19 19 19 19 19 18 18 18 18 18 18 18 18 18 18 18 17 17 17 17 17 17 17 17 17 17 18 18 19 18 17 17 17 16 16 16 16 16 16 16
21 20 20 19 19 19 19 19 19 19 19 18 18 18 18 18 18 18 18 18 17 17 17 17 17 17 17 17 17 17 17 18 18 18 17 17 16 16 16 16 16 16 16
21 21 20 20 20 19 19 19 19 19 19 18 18 18 18 18 18 18 17 18 17 17 17 17 17 17 17 17 17 17 17 17 17 17 18 17 17 17 16 16 16 16 16
21 21 21 20 20 20 19 19 19 19 19 18 18 18 18 18 18 18 17 18 17 17 17 17 17 17 17 17 17 17 17 17 18 17 17 17 17 17 16 16 16 16 16
Wind_Speed
4 5 8 6 7 6 7 7 8 8 8 8 9 9 9 9 9 9 10 11 12 12 12 12 14 14 15 15 15 15 15 15 15 15 14 13 12 12 12 12 12 11 13
4 5 7 6 6 6 7 7 7 8 8 8 8 8 8 9 9 9 10 10 11 11 12 12 13 14 14 15 15 15 14 15 15 15 15 13 12 11 11 10 7 10 12
4 5 7 7 6 6 7 7 7 7 7 7 7 7 8 8 9 9 10 10 10 11 11 12 12 13 13 14 14 14 14 15 14 14 14 11 11 11 11 10 10 11 11
5 5 7 7 6 7 7 8 8 7 7 7 7 7 7 8 8 9 10 10 10 11 11 11 11 12 13 13 13 13 14 14 13 13 10 9 10 12 11 10 10 11 11
5 6 8 7 7 7 7 7 8 7 7 7 7 7 7 7 8 9 9 10 10 10 10 11 11 11 12 13 13 13 13 13 13 11 8 8 9 12 11 10 10 10 10
6 6 9 7 6 7 7 7 7 8 7 6 6 7 7 8 8 9 9 9 9 10 10 10 10 11 12 13 13 12 12 12 11 8 8 8 9 12 11 11 10 10 9
6 6 8 7 6 6 7 7 7 7 7 6 7 8 8 8 9 9 9 9 9 9 9 9 9 11 12 13 13 12 12 10 7 7 7 7 9 11 10 10 10 9 9
6 6 7 7 6 6 6 6 6 6 6 6 7 8 8 8 9 9 9 9 9 9 8 8 7 10 12 13 13 12 12 10 8 8 7 7 10 10 10 9 9 8 8
5 5 5 5 6 6 7 6 6 6 6 7 7 7 7 8 8 9 9 9 9 9 8 7 8 10 11 13 13 12 11 8 6 7 8 7 10 9 9 8 8 8 8
4 4 4 4 4 4 6 7 6 6 6 6 6 6 7 8 9 10 9 10 10 10 8 8 9 11 11 12 12 12 11 8 6 7 7 8 10 8 8 7 7 7 7
4 4 3 4 4 4 5 6 5 5 5 4 6 6 5 6 8 9 10 10 10 9 9 8 10 11 12 13 12 11 9 5 6 5 6 9 9 9 8 7 7 6 6
4 3 3 3 4 4 4 4 3 4 5 4 5 5 4 5 5 7 11 10 10 10 10 10 11 10 8 9 11 9 6 6 6 5 7 10 8 8 7 7 6 6 6
3 3 3 3 3 3 3 4 4 3 4 4 5 4 5 4 5 5 6 8 8 8 7 9 8 7 7 7 6 6 6 6 5 5 8 9 7 6 6 6 6 6 6
3 3 3 3 3 3 3 3 3 4 4 4 4 4 4 4 4 4 4 5 6 6 6 6 6 8 8 8 7 6 6 5 5 5 8 9 6 6 6 6 5 5 6
3 3 3 3 3 3 3 2 4 4 4 5 4 5 4 4 4 5 4 4 5 6 6 6 6 7 7 7 7 6 6 6 5 5 7 8 6 5 5 5 4 4 4
2 3 3 3 3 3 3 3 3 4 4 4 4 5 5 4 5 4 5 4 5 5 6 6 7 6 6 6 6 6 5 5 5 5 5 7 7 5 5 4 4 4 4
2 2 3 3 3 3 3 3 3 4 4 4 5 6 5 5 5 4 4 5 5 6 6 6 6 6 6 6 6 5 4 4 4 4 4 4 5 6 5 4 4 4 4
3 3 2 2 3 3 3 3 3 4 4 4 5 5 5 5 5 4 4 5 5 5 5 5 5 5 5 5 4 4 4 4 3 3 3 4 3 3 5 5 4 3 3
4 3 3 2 3 3 3 3 4 4 4 4 4 4 5 5 5 4 4 5 5 4 4 4 5 4 5 5 4 4 3 3 3 3 3 3 3 2 3 7 6 4 4
4 4 3 3 3 3 3 4 4 4 4 4 4 4 4 4 4 4 4 4 4 4 4 4 5 4 4 4 3 3 2 2 1 1 2 2 3 3 2 3 4 6 6
5 4 4 4 3 2 2 2 3 4 3 3 4 4 4 4 4 3 3 4 3 4 4 5 4 5 3 4 3 3 2 2 2 1 2 1 2 2 2 2 2 2 4
6 5 5 5 4 3 3 2 2 2 3 3 3 4 3 3 3 4 3 3 4 4 4 4 3 2 2 2 1 1 1 3 3 1 2 2 2 2 2 3 2 2 2
7 7 5 5 5 4 4 3 3 3 2 2 3 3 3 3 3 2 3 3 3 3 4 4 4 3 2 2 2 2 1 0 1 2 1 1 1 2 2 2 3 3 3
8 7 7 6 5 5 5 3 3 3 2 2 2 2 3 3 3 3 3 3 3 3 3 4 3 3 3 2 2 2 2 1 1 1 2 2 2 2 3 3 2 3 3
8 8 7 7 6 6 5 4 4 3 3 2 2 3 2 3 3 3 4 4 4 3 3 3 3 4 3 3 2 2 2 2 3 2 1 1 2 2 2 3 2 1 1
9 8 8 8 7 6 6 5 5 4 3 3 3 3 3 3 3 4 4 4 5 4 4 4 4 5 4 4 4 3 3 3 2 2 2 2 2 1 1 1 2 1 2
Wind_Direction
46 52 74 67 68 65 68 75 80 88 96 99 103 110 117 122 126 130 132 131 135 137 141 144 145 145 143 142 141 142 143 144 141 144 145 147 148 146 146 150 154 142 133
57 69 81 70 68 71 73 80 82 85 94 100 103 110 117 119 123 127 128 131 136 138 142 147 147 147 147 145 142 140 140 143 142 142 145 146 145 144 147 150 151 132 137
70 83 90 75 68 70 73 79 83 82 87 95 100 103 112 118 119 124 125 129 135 139 140 146 147 148 148 146 143 141 140 145 146 150 157 155 146 145 147 149 142 139 143
78 86 81 78 71 68 70 75 78 76 81 92 97 95 106 119 121 124 129 130 133 138 139 142 146 151 150 148 148 146 146 148 153 161 160 152 148 142 143 145 149 151 151
87 82 87 79 70 66 68 73 74 74 77 88 95 97 100 113 125 128 129 131 135 139 141 142 147 153 155 154 153 152 152 153 161 167 147 147 144 142 145 142 146 152 149
94 89 89 80 70 63 66 72 72 73 74 79 92 98 97 104 119 123 123 127 133 140 142 143 148 154 157 157 157 156 156 159 169 149 141 141 140 144 149 148 149 153 154
86 86 92 83 71 64 68 71 69 67 67 73 85 94 98 99 106 113 119 123 128 135 136 139 145 151 154 154 156 158 158 167 163 143 139 134 133 144 151 154 156 158 161
82 84 88 100 85 75 77 74 68 63 61 67 80 91 95 98 108 118 122 126 126 129 131 132 135 145 151 154 157 159 160 175 156 145 138 132 131 147 154 156 158 163 166
80 80 82 90 102 104 94 79 70 64 65 65 73 92 103 103 109 118 122 124 124 125 126 126 129 135 145 151 154 155 158 174 158 146 143 134 135 150 156 156 161 167 171
84 75 75 75 78 87 95 96 86 79 75 75 80 99 112 118 118 123 124 121 121 123 124 129 132 135 133 136 141 147 151 164 145 142 136 133 143 156 157 157 164 167 170
81 71 73 85 85 78 78 92 111 114 101 102 98 101 124 114 113 121 104 113 122 123 122 123 126 127 131 130 129 135 143 136 126 122 123 126 146 157 159 161 169 172 173
80 82 76 70 70 76 73 85 85 89 94 90 86 96 103 100 102 106 112 114 116 118 119 116 119 130 137 127 133 146 129 126 122 118 120 128 144 156 160 163 167 173 176
99 92 94 85 60 55 69 73 73 73 83 91 90 99 103 109 114 113 120 125 124 129 122 120 124 111 108 105 112 116 116 120 117 119 118 128 140 155 162 168 173 174 175
94 86 81 86 86 60 52 69 79 77 78 78 84 78 92 94 98 102 104 109 118 115 116 113 110 106 107 113 113 110 115 113 104 111 117 124 131 142 159 170 171 176 178
107 95 86 79 78 73 65 46 70 72 74 82 80 81 81 91 94 99 100 101 108 114 125 122 116 115 114 112 109 109 106 97 95 94 107 115 117 123 134 145 163 174 172
125 106 96 93 89 79 76 71 72 79 86 79 80 78 79 90 92 97 107 105 105 107 109 115 121 119 113 109 111 106 101 99 92 92 99 114 121 126 132 150 158 156 157
137 112 111 113 100 89 74 73 81 85 88 82 84 81 83 93 98 103 108 111 104 109 118 121 119 117 119 117 111 108 111 109 103 108 107 106 121 136 150 155 155 161 161
152 142 139 127 116 109 90 73 79 81 87 87 89 90 89 91 99 105 106 106 107 113 118 119 124 121 119 120 119 117 116 121 123 129 129 125 122 131 145 149 152 157 154
162 157 153 137 126 121 118 114 101 97 90 88 87 88 96 101 106 110 103 103 118 116 119 122 119 123 125 125 127 128 129 127 132 142 137 142 145 150 144 142 155 158 159
162 160 155 147 140 140 136 126 110 102 104 98 95 92 96 109 114 118 117 117 125 119 120 117 119 120 126 135 133 117 121 129 140 142 165 159 155 168 171 161 159 161 166
170 168 166 162 151 151 131 131 120 119 115 109 111 108 113 115 118 119 116 121 127 124 128 134 133 137 139 140 140 134 137 149 153 178 185 184 173 179 171 185 179 164 160
180 180 177 176 171 171 143 130 126 118 121 115 113 116 122 128 134 140 135 144 136 137 145 147 155 157 160 170 183 177 178 166 163 180 173 188 204 195 188 192 188 186 230
187 188 184 182 178 180 169 158 145 143 145 134 137 140 147 151 149 143 155 159 160 175 164 171 180 194 191 186 227 267 259 150 141 150 157 195 207 218 219 203 202 205 213
190 186 185 184 186 186 188 182 173 164 155 144 167 146 157 164 165 165 171 178 191 188 177 199 194 216 220 223 202 245 287 305 265 185 173 176 205 226 244 243 221 205 209
191 187 183 184 188 190 195 192 198 194 178 171 173 163 185 174 184 189 186 193 203 209 207 225 214 234 234 246 245 229 218 224 244 246 230 213 214 218 234 243 227 219 198
189 189 186 184 188 192 198 202 207 208 206 195 197 190 198 190 190 190 196 202 211 216 213 221 229 230 244 255 259 247 236 246 238 242 251 241 247 238 236 260 247 205 202
Height
1517 1515 1513 1512 1511 1510 1509 1509 1508 1508 1508 1508 1509 1509 1509 1510 1511 1513 1514 1515 1517 1518 1520 1522 1524 1525 1528 1530 1531 1533 1535 1537 1538 1540 1543 1545 1547 1549 1550 1552 1554 1555 1555
1518 1516 1514 1513 1512 1511 1510 1510 1510 1510 1510 1510 1510 1510 1510 1511 1512 1513 1515 1516 1517 1519 1521 1522 1524 1526 1528 1530 1532 1534 1535 1537 1539 1541 1543 1545 1547 1549 1551 1552 1554 1555 1556
1518 1517 1516 1514 1513 1513 1512 1512 1511 1511 1511 1511 1511 1511 1511 1511 1512 1514 1515 1516 1518 1520 1521 1523 1525 1526 1528 1530 1532 1534 1536 1537 1540 1542 1544 1547 1548 1549 1551 1552 1554 1555 1556
1519 1519 1518 1516 1515 1514 1514 1513 1513 1512 1512 1512 1512 1512 1511 1511 1512 1514 1515 1517 1518 1520 1522 1523 1525 1527 1529 1531 1533 1535 1537 1538 1541 1543 1546 1548 1549 1550 1551 1552 1554 1555 1557
1521 1520 1519 1517 1516 1516 1515 1515 1514 1514 1513 1513 1513 1513 1512 1510 1511 1513 1516 1518 1519 1521 1522 1524 1526 1527 1529 1531 1533 1535 1538 1539 1541 1544 1546 1548 1549 1550 1551 1552 1554 1555 1557
1522 1522 1520 1519 1518 1517 1517 1516 1515 1515 1515 1515 1515 1514 1512 1510 1511 1513 1516 1518 1520 1521 1523 1525 1526 1527 1529 1531 1533 1536 1538 1540 1542 1545 1547 1548 1549 1549 1551 1553 1554 1555 1556
1524 1524 1523 1521 1520 1519 1518 1517 1517 1517 1516 1516 1516 1515 1514 1513 1513 1515 1517 1519 1520 1522 1524 1525 1526 1527 1529 1531 1534 1536 1538 1540 1543 1545 1546 1548 1548 1549 1551 1553 1554 1555 1557
1525 1525 1524 1522 1521 1520 1520 1519 1519 1518 1518 1518 1518 1517 1517 1517 1516 1517 1519 1520 1522 1523 1525 1526 1527 1528 1530 1532 1534 1536 1538 1540 1543 1545 1546 1547 1548 1549 1551 1553 1554 1555 1557
1527 1526 1526 1525 1524 1523 1522 1521 1520 1520 1520 1519 1519 1519 1519 1519 1519 1520 1521 1522 1523 1524 1525 1526 1527 1528 1530 1532 1535 1537 1538 1540 1543 1545 1546 1547 1548 1549 1551 1553 1554 1555 1556
1528 1527 1527 1526 1526 1526 1525 1523 1523 1522 1521 1521 1521 1521 1521 1521 1522 1522 1523 1524 1525 1525 1526 1527 1528 1529 1531 1533 1535 1537 1539 1540 1543 1545 1547 1548 1548 1550 1551 1553 1554 1555 1557
1529 1528 1528 1528 1527 1527 1527 1525 1525 1524 1523 1523 1523 1523 1523 1524 1525 1525 1525 1525 1526 1527 1528 1528 1529 1530 1532 1534 1536 1538 1540 1542 1544 1546 1547 1548 1548 1550 1552 1553 1554 1555 1556
1530 1529 1529 1529 1529 1529 1528 1527 1527 1527 1526 1525 1525 1525 1525 1525 1526 1527 1526 1527 1528 1528 1529 1530 1530 1532 1535 1537 1538 1540 1542 1544 1546 1547 1548 1548 1549 1550 1552 1553 1554 1555 1556
1531 1531 1531 1530 1529 1530 1529 1529 1528 1528 1527 1527 1527 1527 1527 1527 1528 1528 1529 1529 1530 1530 1532 1533 1534 1535 1537 1538 1540 1543 1544 1546 1547 1548 1548 1549 1550 1551 1552 1553 1554 1555 1556
1532 1532 1532 1531 1530 1530 1530 1530 1530 1529 1529 1529 1528 1528 1529 1529 1529 1530 1530 1531 1532 1533 1533 1535 1535 1537 1538 1540 1542 1544 1546 1547 1548 1549 1549 1550 1550 1551 1552 1554 1554 1555 1555
1533 1533 1532 1532 1531 1531 1530 1530 1531 1531 1531 1530 1530 1530 1530 1530 1531 1531 1532 1532 1534 1534 1535 1536 1537 1538 1540 1541 1543 1545 1546 1548 1549 1550 1550 1550 1551 1552 1552 1553 1554 1554 1555
1534 1534 1533 1533 1532 1531 1531 1531 1531 1532 1531 1532 1531 1531 1531 1532 1532 1532 1533 1534 1535 1536 1537 1538 1539 1540 1542 1543 1544 1546 1547 1549 1549 1550 1551 1551 1551 1552 1553 1553 1554 1554 1554
1534 1534 1534 1534 1533 1532 1532 1532 1533 1533 1533 1533 1533 1532 1533 1533 1533 1534 1535 1536 1536 1537 1538 1539 1541 1542 1543 1544 1546 1547 1548 1549 1550 1550 1551 1552 1552 1552 1553 1553 1553 1554 1554
1535 1535 1535 1535 1534 1533 1533 1533 1534 1534 1534 1534 1535 1535 1534 1535 1535 1536 1536 1537 1538 1539 1540 1541 1542 1543 1544 1545 1546 1547 1548 1549 1550 1551 1552 1552 1553 1553 1553 1553 1553 1553 1554
1535 1535 1535 1535 1535 1534 1534 1534 1534 1535 1535 1536 1536 1537 1536 1536 1537 1538 1538 1539 1540 1541 1542 1543 1544 1545 1545 1546 1547 1548 1549 1549 1550 1551 1552 1552 1553 1553 1553 1553 1553 1553 1553
1535 1535 1535 1535 1535 1534 1534 1535 1536 1536 1537 1537 1537 1537 1538 1538 1538 1539 1540 1540 1542 1542 1543 1544 1544 1545 1546 1547 1548 1548 1549 1550 1550 1551 1552 1552 1553 1553 1553 1553 1552 1552 1552
1534 1534 1535 1535 1535 1535 1535 1536 1537 1537 1538 1538 1539 1539 1539 1539 1539 1540 1541 1541 1542 1544 1544 1545 1546 1547 1547 1548 1549 1549 1550 1550 1550 1550 1551 1552 1552 1553 1552 1552 1552 1552 1552
1534 1534 1535 1535 1535 1535 1536 1536 1537 1538 1539 1539 1539 1539 1539 1540 1540 1541 1541 1543 1543 1544 1544 1545 1546 1548 1549 1549 1550 1550 1550 1552 1550 1551 1551 1551 1551 1552 1551 1551 1551 1550 1550
1533 1533 1534 1535 1535 1536 1536 1537 1538 1538 1539 1540 1540 1540 1540 1540 1541 1541 1542 1543 1544 1545 1545 1546 1546 1547 1549 1549 1549 1550 1550 1549 1550 1551 1550 1550 1550 1550 1550 1550 1550 1549 1549
1532 1533 1533 1534 1535 1535 1536 1538 1538 1539 1540 1540 1540 1541 1541 1541 1541 1542 1542 1543 1543 1545 1545 1546 1547 1547 1548 1549 1549 1548 1549 1549 1550 1550 1550 1550 1549 1549 1549 1549 1549 1548 1547
1531 1532 1533 1533 1534 1535 1536 1537 1538 1539 1539 1540 1540 1540 1541 1541 1541 1542 1542 1542 1543 1544 1544 1545 1545 1546 1547 1548 1548 1548 1548 1548 1549 1549 1549 1549 1549 1548 1548 1548 1547 1546 1546
1529 1530 1532 1532 1533 1534 1535 1536 1536 1538 1538 1539 1539 1540 1540 1541 1541 1541 1541 1541 1542 1543 1543 1543 1544 1544 1545 1545 1546 1547 1547 1547 1548 1548 1547 1547 1548 1547 1546 1546 1545 1545 1544